[[{"header":{"parameterUnit":"m.s-1","parameterCategory":2,"la1":30.2991,"la2":30.254,"lo1":-89.0895,"lo2":-89.0444,"dy":0.0017,"dx":0.0017,"nx":28,"ny":28,"refTime":"2025-01-01T03:00:00:Z","depth":"0","parameterNumber":2,"parameterNumberName":"U-component_of_CURRENTS"},"data":[0,0,0,0,0,0,0,0,0,0,0,0,0,0,0,0,0,0,0,0,0,0,0,0,0,0,0,0,0,0,0,0,0,0,0,0,0,0,0,0,0,0,0,0,0,0,0,0,0,0,0,0,0,0,0,0,0,0,-0.2875,-0.2874,0,-0.282,-0.2819,-0.2818,-0.2777,-0.2777,-0.2777,-0.2777,-0.2757,-0.2757,-0.2756,0,0,0,0,0,0,0,0,0,0,0,0,0,-0.2798,-0.2801,-0.2875,-0.2874,-0.2874,-0.282,-0.2819,-0.2818,-0.2777,-0.2777,-0.2777,-0.2776,-0.2757,-0.2757,-0.2756,0,0,0,0,0,0,0,0,0,0,0,0,0,-0.2795,-0.2801,-0.2875,-0.2848,-0.2845,-0.282,-0.2819,-0.2818,-0.2777,-0.2777,-0.2777,-0.2776,-0.2757,-0.2757,-0.2756,-0.2761,0,0,-0.2755,-0.2755,0,0,0,0,0,0,0,0,-0.2796,-0.2798,-0.2852,-0.285,-0.2846,-0.2806,-0.2785,-0.2801,-0.2777,-0.2802,-0.2777,-0.2776,-0.2778,-0.2776,-0.2764,-0.276,-0.2759,-0.2755,-0.2755,-0.2755,-0.2754,0,0,0,0,0,0,0,-0.2796,-0.2799,-0.2852,-0.2852,-0.2848,-0.2788,-0.2789,-0.2786,-0.2792,-0.2799,-0.2797,-0.2793,-0.2776,-0.2764,-0.2763,-0.2759,-0.2755,-0.2755,-0.2754,-0.2754,-0.2796,-0.2797,0,0,0,0,0,0,-0.2814,-0.2801,-0.2853,-0.285,-0.2821,-0.2791,-0.2791,-0.2818,-0.2791,-0.2787,-0.2793,-0.2791,-0.2765,-0.2764,-0.2762,-0.2786,-0.2755,-0.2754,-0.2754,-0.2794,-0.2796,-0.2798,0,0,0,0,0,0,-0.2813,-0.2821,-0.2856,-0.2822,-0.2823,-0.2794,-0.2824,-0.2817,-0.2806,-0.2786,-0.2782,-0.2789,-0.2765,-0.2763,-0.2773,-0.2784,-0.2754,-0.2753,-0.2793,-0.2795,-0.2797,-0.2821,0,0,0,0,0,0,-0.2812,-0.2822,-0.2836,-0.2825,-0.2826,-0.2856,-0.2824,-0.2817,-0.2805,-0.2802,-0.2781,-0.2779,-0.2764,-0.2774,-0.2773,-0.2783,-0.2753,-0.2791,-0.2794,-0.2796,-0.2818,-0.2824,-0.2828,0,0,0,0,0,-0.281,-0.2828,-0.2839,-0.2844,-0.2853,-0.2857,-0.2852,-0.2827,-0.2805,-0.2812,-0.2798,-0.2779,-0.279,-0.2775,-0.2773,-0.2783,-0.279,-0.2793,-0.2796,-0.2816,-0.2823,-0.2828,0,0,0,0,0,0,-0.2783,-0.2826,-0.2836,-0.2863,-0.2871,-0.2851,-0.2843,-0.2831,-0.2822,-0.2811,-0.2793,-0.2791,-0.2814,-0.2798,-0.2782,-0.2807,-0.2788,-0.2791,-0.2805,-0.281,-0.2815,-0.2784,-0.2753,0,0,0,0,0,-0.2793,-0.2826,-0.2851,-0.2866,-0.2879,-0.2864,-0.2857,-0.2845,-0.2837,-0.283,-0.2824,-0.2816,-0.2825,-0.2816,-0.2828,-0.2828,-0.2786,-0.2838,-0.2842,-0.2846,-0.2822,-0.2792,-0.2791,-0.2808,-0.2808,-0.2808,0,0,-0.2781,-0.2808,-0.2823,-0.2863,-0.2862,-0.287,-0.2859,-0.2854,-0.285,-0.2832,-0.2829,-0.2843,-0.2836,-0.2849,-0.2855,-0.2832,-0.2818,-0.285,-0.2853,-0.2826,-0.2795,-0.2793,-0.2791,-0.281,-0.281,-0.2809,0,0,-0.2754,-0.2809,-0.282,-0.2842,-0.2856,-0.2863,-0.2869,-0.2871,-0.2869,-0.2877,-0.287,-0.2882,-0.2889,-0.288,-0.2876,-0.2911,-0.2861,-0.2928,-0.2903,-0.2876,-0.2873,-0.287,-0.28,-0.2791,-0.2911,-0.2911,-0.2911,0,-0.273,-0.276,-0.2816,-0.2829,-0.2835,-0.2865,-0.2862,-0.2874,-0.2875,-0.2867,-0.2884,-0.2889,-0.2897,-0.2886,-0.2905,-0.2918,-0.288,-0.2879,-0.2878,-0.2875,-0.2871,-0.28,-0.2789,-0.2912,-0.2912,-0.2912,-0.2912,0,-0.271,-0.2735,-0.2742,-0.2785,-0.2808,-0.281,-0.2851,-0.2866,-0.2877,-0.2875,-0.289,-0.2908,-0.2897,-0.2921,-0.2921,-0.2907,-0.288,-0.2901,-0.2854,-0.287,-0.2795,-0.2783,-0.2915,-0.2914,-0.2914,-0.2913,0,0,-0.2627,-0.2714,-0.2709,-0.2713,-0.2784,-0.2782,-0.2818,-0.2834,-0.2819,-0.2858,-0.2834,-0.2877,-0.2883,-0.2879,-0.2893,-0.2871,-0.2827,-0.2871,-0.2869,-0.2783,-0.2727,-0.2622,-0.2599,-0.2849,-0.2848,-0.2846,-0.2678,0,-0.2576,-0.2584,-0.2656,-0.2648,-0.2647,-0.2722,-0.2745,-0.2768,-0.2797,-0.2795,-0.2822,-0.2814,-0.2869,-0.2856,-0.2857,-0.2847,-0.2799,-0.2867,-0.2739,-0.2734,-0.2625,-0.2583,-0.2488,-0.2323,-0.2667,-0.2665,-0.2663,0,-0.2502,-0.2521,-0.2513,-0.2562,-0.2572,-0.258,-0.2606,-0.2631,-0.2669,-0.269,-0.2709,-0.2737,-0.2733,-0.2775,-0.2738,-0.278,-0.2743,-0.2728,-0.2722,-0.26,-0.2607,-0.2368,-0.2288,-0.2292,-0.2644,-0.2646,-0.2647,0,-0.235,-0.2404,-0.239,-0.2408,-0.2483,-0.2481,-0.2515,-0.2567,-0.2568,-0.2599,-0.2585,-0.2628,-0.2602,-0.2614,-0.2619,-0.2667,-0.2552,-0.2612,-0.2466,-0.2457,-0.2334,-0.2316,-0.2222,-0.2539,-0.2539,-0.2539,-0.254,0,-0.2238,-0.2211,-0.2309,-0.2286,-0.2256,-0.2354,-0.2322,-0.2372,-0.2416,-0.2398,-0.2497,-0.2473,-0.2559,-0.2532,-0.2561,-0.2461,-0.2499,-0.2423,-0.24,-0.2339,-0.2325,-0.229,-0.2332,-0.2533,-0.2535,-0.2536,-0.2537,0,-0.2037,-0.2115,-0.2085,-0.2158,-0.2172,-0.2133,-0.2191,-0.2181,-0.224,-0.2218,-0.2217,-0.2302,-0.2281,-0.2333,-0.2318,-0.2325,-0.2228,-0.2224,-0.2125,-0.2093,-0.1976,-0.2023,-0.1857,-0.1803,-0.203,-0.2027,-0.2023,0,-0.1929,-0.1898,-0.1953,-0.1944,-0.1964,-0.1951,-0.1958,-0.2054,-0.2059,-0.2109,-0.2082,-0.2067,-0.2063,-0.1999,-0.2009,-0.1974,-0.2033,-0.1841,-0.192,-0.191,-0.1948,-0.1994,-0.1966,-0.1761,-0.1756,-0.1752,-0.1749,0,-0.1721,-0.1752,-0.1751,-0.174,-0.1738,-0.1739,-0.1759,-0.1742,-0.1858,-0.1848,-0.1851,-0.1848,-0.1803,-0.1752,-0.1699,-0.1687,-0.1798,-0.1751,-0.1776,-0.1733,-0.174,-0.1696,-0.1919,-0.1712,-0.1716,-0.1719,-0.1721,-0.1722,-0.1567,-0.153,-0.1563,-0.1539,-0.1547,-0.1544,-0.1506,-0.156,-0.155,-0.1563,-0.1627,-0.161,-0.1592,-0.152,-0.1483,-0.14,-0.1491,-0.1403,-0.1457,-0.15,-0.1458,-0.1569,-0.1329,-0.133,-0.1331,-0.1332,-0.1333,0,-0.1399,-0.1401,-0.1373,-0.1368,-0.1335,-0.1391,-0.1396,-0.1365,-0.1334,-0.138,-0.1376,-0.139,-0.1303,-0.1307,-0.1234,-0.1167,-0.1168,-0.1151,-0.1228,-0.1212,-0.132,-0.1321,-0.1025,-0.1025,-0.1025,-0.1025,-0.1025,-0.1025,-0.1316,-0.1261,-0.1268,-0.1182,-0.1175,-0.1113,-0.1099,-0.1075,-0.109,-0.1082,-0.1126,-0.1197,-0.1235,-0.129,-0.1183,-0.1104,-0.1113,-0.1037,-0.109,-0.1228,-0.1259,-0.1288,-0.1299,-0.1003,-0.1003,-0.0934,-0.0934,-0.0934]},{"header":{"parameterUnit":"m.s-1","parameterCategory":2,"la1":30.2991,"la2":30.254,"lo1":-89.0895,"lo2":-89.0444,"dy":0.0017,"dx":0.0017,"nx":28,"ny":28,"refTime":"2025-01-01T03:00:00:Z","depth":"0","parameterNumber":3,"parameterNumberName":"V-component_of_CURRENTS"},"data":[0,0,0,0,0,0,0,0,0,0,0,0,0,0,0,0,0,0,0,0,0,0,0,0,0,0,0,0,0,0,0,0,0,0,0,0,0,0,0,0,0,0,0,0,0,0,0,0,0,0,0,0,0,0,0,0,0,0,-0.0828,-0.0827,0,-0.0681,-0.0679,-0.0677,-0.0598,-0.0598,-0.0599,-0.0599,-0.0447,-0.0443,-0.0439,0,0,0,0,0,0,0,0,0,0,0,0,0,-0.0882,-0.0883,-0.0828,-0.0827,-0.0825,-0.0681,-0.0679,-0.0676,-0.0598,-0.0598,-0.0599,-0.0599,-0.0448,-0.0443,-0.0438,0,0,0,0,0,0,0,0,0,0,0,0,0,-0.0807,-0.0883,-0.0829,-0.0771,-0.0764,-0.0682,-0.0679,-0.0676,-0.0598,-0.0598,-0.0599,-0.0599,-0.045,-0.0444,-0.0437,-0.0396,0,0,-0.0418,-0.0416,0,0,0,0,0,0,0,0,-0.0812,-0.0805,-0.0781,-0.0775,-0.0767,-0.0661,-0.0642,-0.0583,-0.0598,-0.0658,-0.0599,-0.0599,-0.052,-0.0508,-0.0475,-0.0389,-0.0382,-0.0418,-0.0414,-0.0411,-0.041,0,0,0,0,0,0,0,-0.0817,-0.081,-0.0767,-0.0779,-0.0771,-0.0698,-0.0688,-0.063,-0.0588,-0.0653,-0.0648,-0.0636,-0.0515,-0.0482,-0.0471,-0.038,-0.0418,-0.0413,-0.0409,-0.0406,-0.027,-0.027,0,0,0,0,0,0,-0.085,-0.0816,-0.0772,-0.0763,-0.0794,-0.0698,-0.0687,-0.0692,-0.0588,-0.0573,-0.0636,-0.0633,-0.0492,-0.0479,-0.0466,-0.0434,-0.0412,-0.0406,-0.0402,-0.027,-0.027,-0.027,0,0,0,0,0,0,-0.0852,-0.0848,-0.0778,-0.0787,-0.0773,-0.0698,-0.0704,-0.069,-0.0654,-0.0576,-0.056,-0.0616,-0.0492,-0.0475,-0.0418,-0.0427,-0.0403,-0.0397,-0.027,-0.027,-0.027,-0.0356,0,0,0,0,0,0,-0.0854,-0.085,-0.0851,-0.079,-0.0774,-0.0735,-0.0703,-0.0687,-0.0648,-0.0642,-0.0553,-0.0539,-0.0491,-0.0427,-0.0412,-0.0418,-0.0392,-0.027,-0.027,-0.027,-0.0353,-0.0359,-0.0365,0,0,0,0,0,-0.0857,-0.0851,-0.0853,-0.0846,-0.0784,-0.0735,-0.072,-0.0663,-0.0647,-0.0632,-0.0576,-0.0542,-0.0418,-0.0422,-0.0403,-0.0409,-0.027,-0.027,-0.027,-0.0351,-0.0358,-0.0365,0,0,0,0,0,0,-0.0853,-0.0842,-0.0841,-0.0828,-0.0794,-0.0723,-0.0695,-0.0666,-0.0607,-0.0598,-0.0533,-0.0515,-0.0472,-0.0425,-0.0431,-0.0371,-0.0342,-0.0338,-0.041,-0.0416,-0.0421,-0.0442,-0.0387,0,0,0,0,0,-0.0864,-0.0872,-0.0839,-0.0828,-0.0818,-0.0762,-0.0731,-0.0698,-0.0643,-0.0616,-0.0567,-0.0508,-0.0457,-0.0426,-0.0374,-0.0331,-0.0283,-0.0325,-0.033,-0.0336,-0.034,-0.0285,-0.0286,-0.0271,-0.0271,-0.0271,0,0,-0.0864,-0.0853,-0.0859,-0.0831,-0.0799,-0.0785,-0.0742,-0.07,-0.0689,-0.0609,-0.0577,-0.0524,-0.0451,-0.0411,-0.0388,-0.0372,-0.0312,-0.0336,-0.0341,-0.0342,-0.0285,-0.0286,-0.0288,-0.0271,-0.0271,-0.0271,0,0,-0.0864,-0.0859,-0.087,-0.0852,-0.0815,-0.0784,-0.0781,-0.0727,-0.0704,-0.0664,-0.0613,-0.0569,-0.0488,-0.0446,-0.0411,-0.0413,-0.0346,-0.0396,-0.0435,-0.0382,-0.0383,-0.0383,-0.0316,-0.031,-0.0396,-0.0396,-0.0397,0,-0.0868,-0.0875,-0.0857,-0.0856,-0.0846,-0.0797,-0.0798,-0.0764,-0.07,-0.0682,-0.0668,-0.0562,-0.0508,-0.0458,-0.0463,-0.0428,-0.0378,-0.0419,-0.0391,-0.039,-0.0389,-0.032,-0.0312,-0.0401,-0.04,-0.04,-0.0399,0,-0.0881,-0.0883,-0.088,-0.0886,-0.0869,-0.0853,-0.0826,-0.0804,-0.0777,-0.0742,-0.0696,-0.0626,-0.0563,-0.0546,-0.0502,-0.0468,-0.0428,-0.0409,-0.0379,-0.0396,-0.0322,-0.0312,-0.0407,-0.0405,-0.0404,-0.0403,0,0,-0.0902,-0.09,-0.0897,-0.0901,-0.0886,-0.0864,-0.0864,-0.0836,-0.0814,-0.0776,-0.0748,-0.0686,-0.0648,-0.0607,-0.0553,-0.0512,-0.0462,-0.0462,-0.0457,-0.0405,-0.0326,-0.0277,-0.026,-0.0435,-0.0434,-0.0433,-0.0275,0,-0.0921,-0.0928,-0.0928,-0.0929,-0.0928,-0.0907,-0.0904,-0.0871,-0.0835,-0.0795,-0.0742,-0.0686,-0.0672,-0.0629,-0.0597,-0.0484,-0.044,-0.0505,-0.0309,-0.0303,-0.0265,-0.0249,-0.0225,-0.0081,-0.0265,-0.0263,-0.0262,0,-0.0936,-0.0935,-0.0946,-0.0943,-0.0943,-0.094,-0.0914,-0.0902,-0.0848,-0.0819,-0.0778,-0.0721,-0.0658,-0.064,-0.05,-0.0538,-0.0447,-0.0371,-0.0363,-0.0281,-0.0235,-0.0093,-0.0055,0.0066,-0.0246,-0.0247,-0.0248,0,-0.0931,-0.0945,-0.0951,-0.0953,-0.0944,-0.0944,-0.0938,-0.09,-0.0883,-0.082,-0.0784,-0.0719,-0.0652,-0.0564,-0.0429,-0.0451,-0.026,-0.0263,-0.0136,-0.0131,-0.0054,-0.0043,0.0116,-0.0168,-0.0169,-0.0169,-0.0169,0,-0.0935,-0.0932,-0.0945,-0.0937,-0.0943,-0.094,-0.0927,-0.0909,-0.0872,-0.0842,-0.0789,-0.0739,-0.0628,-0.0513,-0.0416,-0.0237,-0.0246,-0.0134,-0.0087,-0.0081,-0.0076,0.0078,0.012,-0.0163,-0.0164,-0.0166,-0.0167,0,-0.0903,-0.0917,-0.0919,-0.0926,-0.0933,-0.0927,-0.0932,-0.0919,-0.0878,-0.0836,-0.0814,-0.0722,-0.0575,-0.045,-0.0266,-0.0191,0.0049,0.0027,0.0031,0.0074,0.0278,0.0313,0.0533,0.0605,0.0187,0.0189,0.0191,0,-0.0881,-0.088,-0.0904,-0.0922,-0.0924,-0.0927,-0.0937,-0.092,-0.0913,-0.0825,-0.0806,-0.0654,-0.0556,-0.0272,-0.0102,0.0097,0.0172,0.0245,0.0192,0.0306,0.038,0.0403,0.0448,0.0272,0.0275,0.0276,0.0278,0,-0.0843,-0.0856,-0.0868,-0.0906,-0.0927,-0.0946,-0.0958,-0.0954,-0.0925,-0.0872,-0.0783,-0.0688,-0.0421,-0.0193,0.0072,0.0186,0.0337,0.029,0.0412,0.0464,0.0499,0.0584,0.016,0.0295,0.0293,0.0292,0.0291,0.029,-0.0823,-0.0838,-0.0873,-0.0906,-0.0939,-0.0969,-0.0972,-0.0975,-0.0947,-0.087,-0.0781,-0.0619,-0.0282,0.0084,0.0231,0.054,0.0497,0.0615,0.0653,0.0671,0.0722,0.0337,0.0515,0.0514,0.0514,0.0514,0.0513,0,-0.081,-0.0844,-0.0878,-0.0927,-0.0962,-0.0973,-0.0994,-0.0981,-0.0945,-0.0858,-0.0753,-0.0399,-0.0045,0.0273,0.0701,0.0881,0.0909,0.0972,0.1005,0.1036,0.0712,0.0695,0.0914,0.0914,0.0914,0.0914,0.0914,0.0914,-0.081,-0.0848,-0.0873,-0.0936,-0.0969,-0.0994,-0.1001,-0.0965,-0.0906,-0.0735,-0.0556,-0.0426,0.0039,0.0748,0.1164,0.121,0.135,0.1354,0.1428,0.119,0.1158,0.1129,0.1124,0.143,0.143,0.1733,0.1736,0.1739]}],[{"header":{"parameterUnit":"m.s-1","parameterCategory":2,"la1":30.2991,"la2":30.254,"lo1":-89.0895,"lo2":-89.0444,"dy":0.0017,"dx":0.0017,"nx":28,"ny":28,"refTime":"2025-01-01T03:00:00:Z","depth":"2","parameterNumber":2,"parameterNumberName":"U-component_of_CURRENTS"},"data":[0,0,0,0,0,0,0,0,0,0,0,0,0,0,0,0,0,0,0,0,0,0,0,0,0,0,0,0,0,0,0,0,0,0,0,0,0,0,0,0,0,0,0,0,0,0,0,0,0,0,0,0,0,0,0,0,0,0,-0.2074,-0.2074,0,-0.2117,-0.2118,-0.2119,-0.215,-0.2149,-0.2149,-0.2149,-0.2157,-0.2158,-0.2158,0,0,0,0,0,0,0,0,0,0,0,0,0,-0.2042,-0.2042,-0.2074,-0.2074,-0.2074,-0.2117,-0.2118,-0.2119,-0.215,-0.2149,-0.2149,-0.2149,-0.2157,-0.2157,-0.2158,0,0,0,0,0,0,0,0,0,0,0,0,0,-0.2073,-0.2043,-0.2074,-0.209,-0.2092,-0.2117,-0.2118,-0.212,-0.215,-0.2149,-0.2149,-0.2149,-0.2157,-0.2157,-0.2158,-0.2171,0,0,-0.216,-0.2161,0,0,0,0,0,0,0,0,-0.2071,-0.2075,-0.2088,-0.2089,-0.2091,-0.2122,-0.2109,-0.2133,-0.215,-0.2134,-0.2149,-0.2148,-0.2139,-0.2141,-0.2159,-0.2172,-0.2172,-0.216,-0.2161,-0.2161,-0.2161,0,0,0,0,0,0,0,-0.2069,-0.2073,-0.2097,-0.2088,-0.209,-0.2103,-0.2107,-0.2115,-0.2142,-0.2135,-0.2136,-0.2132,-0.214,-0.2158,-0.2159,-0.2172,-0.216,-0.2161,-0.2161,-0.2162,-0.2209,-0.221,0,0,0,0,0,0,-0.2051,-0.2071,-0.2096,-0.2098,-0.2073,-0.2103,-0.2108,-0.2118,-0.2143,-0.2145,-0.2132,-0.2133,-0.2157,-0.2158,-0.2159,-0.2207,-0.2161,-0.2162,-0.2162,-0.2208,-0.2209,-0.221,0,0,0,0,0,0,-0.205,-0.2054,-0.2094,-0.208,-0.2085,-0.2103,-0.2114,-0.2118,-0.2165,-0.214,-0.2142,-0.2176,-0.2157,-0.2158,-0.2166,-0.2206,-0.2162,-0.2163,-0.2207,-0.2208,-0.2209,-0.2283,0,0,0,0,0,0,-0.205,-0.2054,-0.2096,-0.2079,-0.2085,-0.2125,-0.2114,-0.2119,-0.2158,-0.2161,-0.2177,-0.2176,-0.2157,-0.2165,-0.2167,-0.2207,-0.2163,-0.2206,-0.2208,-0.2209,-0.228,-0.2287,-0.2293,0,0,0,0,0,-0.2049,-0.2084,-0.2099,-0.2103,-0.213,-0.2126,-0.2132,-0.2146,-0.2161,-0.2188,-0.2181,-0.2177,-0.2176,-0.2166,-0.2168,-0.2209,-0.2205,-0.2207,-0.2209,-0.2277,-0.2285,-0.2292,0,0,0,0,0,0,-0.2096,-0.2089,-0.2105,-0.2141,-0.2145,-0.2129,-0.2151,-0.2171,-0.2194,-0.2199,-0.2184,-0.2182,-0.2214,-0.2194,-0.2183,-0.2225,-0.2193,-0.2195,-0.2244,-0.2252,-0.2258,-0.2237,-0.2164,0,0,0,0,0,-0.2125,-0.2143,-0.214,-0.2168,-0.2167,-0.2174,-0.2189,-0.2199,-0.2195,-0.2209,-0.2202,-0.2202,-0.2221,-0.222,-0.2226,-0.2243,-0.2202,-0.227,-0.2276,-0.2282,-0.2265,-0.2241,-0.2243,-0.2216,-0.2216,-0.2216,0,0,-0.2161,-0.2145,-0.217,-0.2179,-0.2176,-0.2182,-0.2183,-0.2201,-0.2221,-0.2203,-0.2222,-0.2234,-0.2234,-0.2254,-0.2266,-0.2241,-0.2269,-0.2284,-0.2289,-0.2269,-0.2243,-0.2245,-0.2247,-0.2217,-0.2217,-0.2217,0,0,-0.2175,-0.221,-0.2218,-0.2219,-0.2215,-0.2217,-0.223,-0.2228,-0.2248,-0.2272,-0.2268,-0.2291,-0.2304,-0.2303,-0.2311,-0.2356,-0.2316,-0.237,-0.2375,-0.2353,-0.2355,-0.2356,-0.2308,-0.2304,-0.2359,-0.2359,-0.2359,0,-0.2206,-0.2212,-0.2224,-0.221,-0.2206,-0.2232,-0.2232,-0.2264,-0.2269,-0.2272,-0.2283,-0.2313,-0.2328,-0.2351,-0.2368,-0.2374,-0.2335,-0.2351,-0.2361,-0.2361,-0.2361,-0.2312,-0.2307,-0.2363,-0.2363,-0.2362,-0.2362,0,-0.2196,-0.2225,-0.2214,-0.2207,-0.2226,-0.2221,-0.2245,-0.2275,-0.2304,-0.2314,-0.2352,-0.2369,-0.2372,-0.2406,-0.2406,-0.2421,-0.2386,-0.2386,-0.2342,-0.2368,-0.2315,-0.2308,-0.2368,-0.2367,-0.2366,-0.2365,0,0,-0.2159,-0.2201,-0.2196,-0.2202,-0.2216,-0.2215,-0.2259,-0.2278,-0.2294,-0.2338,-0.2343,-0.2409,-0.2412,-0.2418,-0.2432,-0.2424,-0.2414,-0.2402,-0.2399,-0.2353,-0.2335,-0.2246,-0.2229,-0.2411,-0.2411,-0.241,-0.2298,0,-0.2124,-0.2113,-0.2148,-0.2159,-0.2154,-0.22,-0.2228,-0.2269,-0.2301,-0.2315,-0.2366,-0.238,-0.242,-0.2427,-0.2433,-0.2423,-0.2398,-0.2442,-0.2315,-0.231,-0.2228,-0.222,-0.2081,-0.1963,-0.2291,-0.229,-0.2289,0,-0.2067,-0.207,-0.2073,-0.212,-0.212,-0.2141,-0.2169,-0.2203,-0.2253,-0.228,-0.2314,-0.234,-0.2363,-0.2388,-0.2368,-0.239,-0.236,-0.2348,-0.2343,-0.2223,-0.2208,-0.1989,-0.1938,-0.2277,-0.2278,-0.2279,-0.228,0,-0.1973,-0.2007,-0.2006,-0.2014,-0.2077,-0.2092,-0.2124,-0.2176,-0.2187,-0.2238,-0.224,-0.2286,-0.2286,-0.2288,-0.2289,-0.2317,-0.224,-0.2272,-0.2155,-0.2147,-0.1982,-0.1961,-0.2225,-0.2225,-0.2226,-0.2226,-0.2226,0,-0.1882,-0.188,-0.1966,-0.1956,-0.1953,-0.2028,-0.2024,-0.2072,-0.2119,-0.2113,-0.2198,-0.2192,-0.2257,-0.2237,-0.225,-0.2169,-0.2202,-0.2134,-0.2109,-0.2003,-0.1987,-0.2224,-0.2226,-0.2222,-0.2223,-0.2224,-0.2224,0,-0.1763,-0.182,-0.1818,-0.1889,-0.1905,-0.1897,-0.1945,-0.195,-0.2012,-0.2007,-0.2017,-0.2088,-0.2069,-0.2105,-0.2087,-0.2079,-0.2039,-0.1994,-0.1856,-0.1816,-0.197,-0.1977,-0.1852,-0.1847,-0.1844,-0.1841,-0.1838,0,-0.1694,-0.1685,-0.1741,-0.1737,-0.176,-0.1772,-0.1782,-0.1869,-0.1875,-0.1933,-0.1916,-0.1919,-0.1904,-0.185,-0.1836,-0.1795,-0.1898,-0.1635,-0.1674,-0.1942,-0.193,-0.1943,-0.1954,-0.1483,-0.1478,-0.1473,-0.147,0,-0.1558,-0.1586,-0.1593,-0.1593,-0.1601,-0.1606,-0.1632,-0.1626,-0.1724,-0.1725,-0.1727,-0.1723,-0.1686,-0.1595,-0.1548,-0.152,-0.1644,-0.1545,-0.1834,-0.1609,-0.1587,-0.1579,-0.1603,-0.1432,-0.1436,-0.1439,-0.1441,-0.1442,-0.1446,-0.1421,-0.1448,-0.1436,-0.1448,-0.1446,-0.1415,-0.146,-0.1453,-0.1461,-0.1522,-0.1484,-0.1484,-0.1351,-0.1279,-0.1238,-0.1365,-0.1333,-0.1349,-0.1369,-0.1356,-0.1331,-0.1123,-0.1125,-0.1126,-0.1128,-0.1129,0,-0.1309,-0.1309,-0.1292,-0.1288,-0.1262,-0.1315,-0.1317,-0.1284,-0.1248,-0.1277,-0.1267,-0.1153,-0.1079,-0.1096,-0.0969,-0.094,-0.096,-0.0906,-0.0947,-0.0984,-0.1016,-0.099,-0.0657,-0.0656,-0.0654,-0.0653,0,0,-0.1237,-0.1189,-0.1194,-0.1119,-0.1115,-0.1057,-0.1042,-0.1011,-0.101,-0.0959,-0.095,-0.1035,-0.1064,-0.0874,-0.0813,-0.0718,-0.0847,-0.0675,-0.1052,-0.1136,-0.1168,-0.1254,-0.1252,0,0,0,0,0]},{"header":{"parameterUnit":"m.s-1","parameterCategory":2,"la1":30.2991,"la2":30.254,"lo1":-89.0895,"lo2":-89.0444,"dy":0.0017,"dx":0.0017,"nx":28,"ny":28,"refTime":"2025-01-01T03:00:00:Z","depth":"2","parameterNumber":3,"parameterNumberName":"V-component_of_CURRENTS"},"data":[0,0,0,0,0,0,0,0,0,0,0,0,0,0,0,0,0,0,0,0,0,0,0,0,0,0,0,0,0,0,0,0,0,0,0,0,0,0,0,0,0,0,0,0,0,0,0,0,0,0,0,0,0,0,0,0,0,0,-0.0002,-0.0001,0,0.0021,0.002,0.0019,-0.0009,-0.0009,-0.0009,-0.0008,0.0114,0.0117,0.012,0,0,0,0,0,0,0,0,0,0,0,0,0,-0.008,-0.008,-0.0002,-0.0001,0.0001,0.0021,0.002,0.0019,-0.0009,-0.0009,-0.0009,-0.0008,0.0113,0.0117,0.012,0,0,0,0,0,0,0,0,0,0,0,0,0,-0.0064,-0.008,-0.0003,-0.0,0.0001,0.0022,0.002,0.0019,-0.0009,-0.0009,-0.0008,-0.0008,0.0112,0.0116,0.0121,0.0141,0,0,0.0135,0.0137,0,0,0,0,0,0,0,0,-0.0065,-0.0063,-0.0002,-0.0,0.0002,0.0016,0.0039,0.007,-0.0009,-0.002,-0.0008,-0.0008,0.01,0.0105,0.0087,0.0147,0.0152,0.0135,0.0138,0.014,0.0141,0,0,0,0,0,0,0,-0.0066,-0.0064,-0.0008,-0.0,0.0002,-0.0002,-0.0001,0.0043,0.0028,-0.0019,-0.0018,0.0007,0.0099,0.0082,0.009,0.0154,0.0135,0.0139,0.0142,0.0144,0.0257,0.0257,0,0,0,0,0,0,-0.004,-0.0065,-0.0008,-0.0005,-0.0015,0.0,0.0001,-0.0001,0.0025,0.0033,0.0007,0.0006,0.0074,0.0085,0.0095,0.011,0.014,0.0144,0.0147,0.0257,0.0257,0.0257,0,0,0,0,0,0,-0.0042,-0.0036,-0.0009,-0.0022,-0.0017,0.0003,0.0,-0.0,-0.0033,0.0047,0.0054,-0.0024,0.0075,0.0088,0.0135,0.0116,0.0146,0.015,0.0256,0.0257,0.0257,0.0149,0,0,0,0,0,0,-0.0046,-0.0039,-0.0072,-0.0021,-0.0014,-0.0015,0.0002,0.0001,-0.0009,-0.0012,0.0023,0.0035,0.0076,0.0128,0.0139,0.0123,0.0154,0.0256,0.0257,0.0257,0.0153,0.0146,0.0141,0,0,0,0,0,-0.0049,-0.0074,-0.0075,-0.0068,-0.0049,-0.0015,-0.0016,-0.0009,-0.0011,-0.0038,0.0006,0.0033,0.0139,0.0132,0.0145,0.0129,0.0256,0.0257,0.0257,0.0155,0.0147,0.0141,0,0,0,0,0,0,-0.013,-0.0076,-0.0076,-0.0089,-0.0063,-0.0015,-0.0026,-0.0024,-0.002,-0.0017,0.0039,0.0054,0.0087,0.0131,0.0121,0.0168,0.0201,0.0205,0.0119,0.0113,0.0107,0.0101,0.0157,0,0,0,0,0,-0.0159,-0.0163,-0.0111,-0.0123,-0.0106,-0.0077,-0.0075,-0.0066,-0.0028,-0.0031,0.0011,0.006,0.0101,0.0124,0.0171,0.0196,0.0238,0.0197,0.0191,0.0185,0.0192,0.0233,0.0231,0.026,0.026,0.026,0,0,-0.0189,-0.0159,-0.0164,-0.0141,-0.0116,-0.0105,-0.008,-0.0068,-0.0071,-0.001,-0.0002,0.0042,0.0106,0.0133,0.0151,0.0165,0.0199,0.0186,0.018,0.0191,0.0234,0.0231,0.0228,0.026,0.026,0.026,0,0,-0.0222,-0.0223,-0.0232,-0.0212,-0.0171,-0.0145,-0.0145,-0.0103,-0.0104,-0.0079,-0.0036,-0.0002,0.0064,0.0098,0.0126,0.0119,0.0167,0.0131,0.0091,0.0129,0.0127,0.0125,0.0162,0.0164,0.0125,0.0125,0.0125,0,-0.027,-0.0268,-0.0233,-0.0226,-0.0206,-0.0163,-0.0164,-0.0156,-0.0111,-0.0097,-0.0081,0.0002,0.0047,0.0078,0.0074,0.0102,0.0135,0.0104,0.0118,0.0118,0.0118,0.0156,0.016,0.012,0.012,0.0121,0.0121,0,-0.0288,-0.0303,-0.0293,-0.0272,-0.0261,-0.0246,-0.0202,-0.0202,-0.018,-0.0154,-0.012,-0.0062,-0.0012,-0.0001,0.0035,0.0053,0.0079,0.0102,0.0126,0.0108,0.015,0.0156,0.0112,0.0114,0.0116,0.0117,0,0,-0.0349,-0.0318,-0.032,-0.0328,-0.0282,-0.0272,-0.0262,-0.0236,-0.0234,-0.0196,-0.0186,-0.0127,-0.0096,-0.0061,-0.0024,0.0007,0.0025,0.0048,0.0052,0.0066,0.011,0.0135,0.0144,0.0045,0.0046,0.0046,0.0133,0,-0.0377,-0.0386,-0.0355,-0.0373,-0.0373,-0.033,-0.0325,-0.0302,-0.0266,-0.0244,-0.0192,-0.0159,-0.012,-0.0107,-0.0072,0.001,0.0039,-0.0,0.0144,0.0148,0.0157,0.0152,0.0137,0.0214,0.014,0.0141,0.0142,0,-0.0404,-0.0409,-0.0426,-0.0428,-0.0422,-0.0426,-0.0405,-0.0396,-0.0345,-0.0318,-0.0275,-0.0223,-0.0172,-0.0141,-0.0023,-0.005,0.0022,0.0081,0.0086,0.0156,0.0185,0.0227,0.0229,0.0153,0.0152,0.0151,0.015,0,-0.0457,-0.0462,-0.048,-0.0476,-0.0464,-0.0471,-0.0463,-0.042,-0.0409,-0.0364,-0.0342,-0.027,-0.0232,-0.0138,-0.0012,-0.0016,0.0124,0.0135,0.0224,0.0226,0.0268,0.0273,0.0214,0.0214,0.0214,0.0214,0.0214,0,-0.0491,-0.0514,-0.0513,-0.0524,-0.0554,-0.0529,-0.054,-0.0519,-0.0483,-0.0463,-0.0389,-0.0355,-0.0227,-0.0129,-0.0023,0.0124,0.0118,0.0223,0.0252,0.023,0.0231,0.0227,0.0227,0.0217,0.0216,0.0216,0.0215,0,-0.0538,-0.0534,-0.0564,-0.0571,-0.0578,-0.06,-0.0592,-0.0593,-0.0553,-0.0527,-0.0515,-0.041,-0.028,-0.0143,0.0022,0.0114,0.0247,0.0299,0.0263,0.0287,0.0325,0.0319,0.0404,0.0406,0.0407,0.0408,0.0409,0,-0.0555,-0.0576,-0.0601,-0.0622,-0.0626,-0.065,-0.0658,-0.0633,-0.0626,-0.0553,-0.0544,-0.0421,-0.032,-0.0072,0.0104,0.0292,0.029,0.0388,0.0377,0.0325,0.0345,0.0337,0.0329,0.0388,0.0389,0.0389,0.039,0,-0.059,-0.0597,-0.0619,-0.0662,-0.0687,-0.0708,-0.0721,-0.0727,-0.0686,-0.0647,-0.057,-0.0484,-0.0251,-0.0044,0.0194,0.0303,0.0355,0.0406,0.0374,0.0337,0.0316,0.0333,0.0326,0.0395,0.0394,0.0394,0.0394,0.0394,-0.0607,-0.0632,-0.0658,-0.0698,-0.0731,-0.0758,-0.0768,-0.0762,-0.0742,-0.0671,-0.0594,-0.0443,-0.0249,0.009,0.026,0.042,0.0416,0.0466,0.0461,0.0457,0.0435,0.0417,0.051,0.0511,0.0511,0.0511,0.0511,0,-0.0619,-0.065,-0.0691,-0.0735,-0.0771,-0.0779,-0.0798,-0.0782,-0.075,-0.067,-0.0575,-0.0348,-0.0114,0.0086,0.0343,0.0495,0.0478,0.0518,0.0468,0.0463,0.0458,0.0433,0.051,0.051,0.0511,0.0511,0,0,-0.0626,-0.0667,-0.069,-0.0753,-0.0786,-0.0812,-0.0817,-0.0779,-0.0721,-0.0625,-0.0515,-0.0366,-0.0114,0.0066,0.0256,0.039,0.0384,0.0402,0.039,0.0303,0.0297,0.042,0.0375,0,0,0,0,0]}],[{"header":{"parameterUnit":"m.s-1","parameterCategory":2,"la1":30.2991,"la2":30.254,"lo1":-89.0895,"lo2":-89.0444,"dy":0.0017,"dx":0.0017,"nx":28,"ny":28,"refTime":"2025-01-01T03:00:00:Z","depth":"4","parameterNumber":2,"parameterNumberName":"U-component_of_CURRENTS"},"data":[0,0,0,0,0,0,0,0,0,0,0,0,0,0,0,0,0,0,0,0,0,0,0,0,0,0,0,0,0,0,0,0,0,0,0,0,0,0,0,0,0,0,0,0,0,0,0,0,0,0,0,0,0,0,0,0,0,0,-0.1087,-0.1087,0,-0.1168,-0.117,-0.1171,-0.12,-0.1199,-0.1198,-0.1198,-0.1225,-0.1227,-0.1228,0,0,0,0,0,0,0,0,0,0,0,0,0,-0.1063,-0.1063,-0.1087,-0.1087,-0.1088,-0.1168,-0.117,-0.1172,-0.12,-0.1199,-0.1198,-0.1197,-0.1225,-0.1227,-0.1228,0,0,0,0,0,0,0,0,0,0,0,0,0,-0.1107,-0.1063,-0.1087,-0.1108,-0.111,-0.1168,-0.117,-0.1172,-0.12,-0.1199,-0.1198,-0.1197,-0.1224,-0.1226,-0.1229,-0.1267,0,0,-0.1235,-0.1236,0,0,0,0,0,0,0,0,-0.1104,-0.1108,-0.1104,-0.1106,-0.1109,-0.1168,-0.1172,-0.1199,-0.1201,-0.1172,-0.1198,-0.1196,-0.1198,-0.1203,-0.123,-0.1268,-0.1269,-0.1236,-0.1237,-0.1238,-0.1239,0,0,0,0,0,0,0,-0.1101,-0.1106,-0.1125,-0.1105,-0.1108,-0.1149,-0.1154,-0.1178,-0.1194,-0.1174,-0.1175,-0.1176,-0.12,-0.1227,-0.123,-0.127,-0.1236,-0.1238,-0.1239,-0.124,-0.1342,-0.1343,0,0,0,0,0,0,-0.1076,-0.1102,-0.1122,-0.1127,-0.1097,-0.115,-0.1155,-0.1155,-0.1195,-0.1199,-0.1177,-0.1177,-0.1224,-0.1227,-0.1231,-0.129,-0.1238,-0.124,-0.1241,-0.134,-0.1342,-0.1344,0,0,0,0,0,0,-0.1075,-0.1077,-0.1119,-0.1112,-0.112,-0.115,-0.115,-0.1157,-0.1199,-0.1197,-0.12,-0.1212,-0.1223,-0.1228,-0.1259,-0.129,-0.1241,-0.1243,-0.1339,-0.1341,-0.1343,-0.14,0,0,0,0,0,0,-0.1074,-0.1076,-0.1089,-0.111,-0.1119,-0.1158,-0.1151,-0.1159,-0.1197,-0.1199,-0.1228,-0.1229,-0.1223,-0.1256,-0.1261,-0.1292,-0.1245,-0.1337,-0.134,-0.1342,-0.1396,-0.1403,-0.141,0,0,0,0,0,-0.1073,-0.1095,-0.1089,-0.1092,-0.1128,-0.1158,-0.1168,-0.119,-0.12,-0.1224,-0.124,-0.1229,-0.1276,-0.1259,-0.1265,-0.1297,-0.1336,-0.1339,-0.1342,-0.1393,-0.1402,-0.1409,0,0,0,0,0,0,-0.1098,-0.11,-0.1094,-0.1117,-0.1133,-0.1161,-0.1192,-0.1207,-0.1245,-0.1251,-0.1251,-0.1253,-0.1288,-0.1289,-0.1271,-0.1333,-0.1303,-0.1307,-0.134,-0.1348,-0.1355,-0.1357,-0.1247,0,0,0,0,0,-0.1105,-0.1119,-0.1123,-0.1143,-0.1152,-0.1178,-0.1201,-0.1213,-0.1237,-0.1255,-0.1272,-0.129,-0.1308,-0.1323,-0.1335,-0.138,-0.1365,-0.1403,-0.141,-0.1416,-0.1421,-0.1427,-0.1435,-0.1354,-0.1354,-0.1353,0,0,-0.1117,-0.1123,-0.113,-0.115,-0.1169,-0.1198,-0.1192,-0.1229,-0.1263,-0.1251,-0.1312,-0.1315,-0.1323,-0.1362,-0.1379,-0.1367,-0.143,-0.1419,-0.1424,-0.1427,-0.1431,-0.1439,-0.1446,-0.1356,-0.1355,-0.1355,0,0,-0.1147,-0.1156,-0.1174,-0.1195,-0.1218,-0.1234,-0.1246,-0.128,-0.1305,-0.1351,-0.1348,-0.1374,-0.1409,-0.1422,-0.1431,-0.1489,-0.1461,-0.1491,-0.1537,-0.1543,-0.155,-0.1555,-0.1539,-0.1543,-0.1501,-0.1501,-0.1501,0,-0.1161,-0.1181,-0.1188,-0.1216,-0.1237,-0.125,-0.128,-0.1317,-0.1359,-0.1378,-0.1372,-0.1428,-0.1439,-0.1484,-0.1503,-0.1506,-0.1491,-0.1504,-0.1551,-0.1557,-0.1561,-0.1543,-0.1547,-0.1504,-0.1504,-0.1504,-0.1503,0,-0.1195,-0.1224,-0.1243,-0.1274,-0.1302,-0.1334,-0.1361,-0.14,-0.1424,-0.1447,-0.1493,-0.1508,-0.1535,-0.1549,-0.1548,-0.1593,-0.1565,-0.1553,-0.1528,-0.1573,-0.1551,-0.1554,-0.1509,-0.1508,-0.1507,-0.1506,0,0,-0.1187,-0.125,-0.126,-0.1285,-0.1333,-0.1358,-0.1414,-0.1457,-0.1495,-0.1532,-0.1574,-0.1617,-0.1616,-0.1627,-0.163,-0.1647,-0.1673,-0.1621,-0.162,-0.1601,-0.1667,-0.1547,-0.1538,-0.1664,-0.1665,-0.1666,-0.1635,0,-0.1208,-0.1268,-0.1294,-0.136,-0.1389,-0.1422,-0.1471,-0.1516,-0.155,-0.1597,-0.1618,-0.1657,-0.165,-0.1663,-0.1682,-0.1673,-0.1683,-0.1681,-0.163,-0.1629,-0.1514,-0.1539,-0.1669,-0.1637,-0.1637,-0.1638,-0.1638,0,-0.1222,-0.1264,-0.1325,-0.1394,-0.141,-0.1456,-0.1522,-0.1567,-0.1628,-0.1652,-0.1687,-0.1698,-0.1739,-0.172,-0.1729,-0.1724,-0.1704,-0.1693,-0.1691,-0.1562,-0.1514,-0.1585,-0.1642,-0.1641,-0.1641,-0.1641,-0.1641,0,-0.1202,-0.1283,-0.1334,-0.1361,-0.1441,-0.1479,-0.1522,-0.1586,-0.1614,-0.1689,-0.1704,-0.1748,-0.176,-0.1758,-0.1734,-0.1735,-0.1721,-0.1716,-0.1588,-0.1578,-0.167,-0.1664,-0.172,-0.172,-0.172,-0.172,-0.172,0,-0.12,-0.1246,-0.1337,-0.1368,-0.142,-0.1485,-0.1538,-0.1585,-0.1646,-0.1663,-0.1729,-0.173,-0.1769,-0.1759,-0.1742,-0.1658,-0.1723,-0.1593,-0.1565,-0.1693,-0.1691,-0.1671,-0.1665,-0.1719,-0.1719,-0.1719,-0.1719,0,-0.116,-0.1226,-0.1284,-0.1381,-0.141,-0.1448,-0.1521,-0.155,-0.1626,-0.1647,-0.1667,-0.1718,-0.1698,-0.171,-0.1699,-0.1642,-0.1597,-0.1551,-0.1676,-0.1655,-0.1449,-0.1448,-0.1408,-0.1404,-0.14,-0.1397,-0.1394,0,-0.114,-0.117,-0.127,-0.129,-0.1335,-0.1399,-0.1425,-0.1519,-0.1534,-0.1609,-0.1596,-0.1622,-0.1633,-0.1515,-0.1553,-0.1506,-0.1488,-0.1459,-0.1471,-0.1442,-0.1419,-0.1423,-0.1427,-0.1388,-0.1387,-0.1386,-0.1385,0,-0.1084,-0.1129,-0.1168,-0.1214,-0.1255,-0.1288,-0.1339,-0.134,-0.1427,-0.151,-0.1474,-0.1463,-0.1435,-0.1421,-0.1391,-0.1362,-0.1481,-0.142,-0.1428,-0.1439,-0.1418,-0.1399,-0.1407,-0.1372,-0.1374,-0.1375,-0.1376,0,-0.1022,-0.1028,-0.108,-0.1107,-0.1154,-0.116,-0.1204,-0.1214,-0.1245,-0.1335,-0.1312,-0.1348,-0.1403,-0.1344,-0.1317,-0.1278,-0.1263,-0.1229,-0.1247,-0.1262,-0.1229,-0.1182,-0.1036,0,0,0,0,0,-0.095,-0.0943,-0.0963,-0.0989,-0.1036,-0.1064,-0.113,-0.1178,-0.1265,-0.1196,-0.1252,-0.1219,-0.1185,-0.121,-0.1138,-0.1256,-0.1274,-0.1168,-0.1246,-0.13,-0.1315,-0.1291,0,0,0,0,0,0,-0.0895,-0.091,-0.0923,-0.0888,-0.0884,-0.0923,-0.0962,-0.1025,-0.0994,-0.1084,-0.1066,-0.1138,-0.1119,-0.1196,-0.1108,-0.1115,-0.1137,-0.1199,-0.1195,-0.1292,-0.1305,-0.1317,-0.1298,0,0,0,0,0]},{"header":{"parameterUnit":"m.s-1","parameterCategory":2,"la1":30.2991,"la2":30.254,"lo1":-89.0895,"lo2":-89.0444,"dy":0.0017,"dx":0.0017,"nx":28,"ny":28,"refTime":"2025-01-01T03:00:00:Z","depth":"4","parameterNumber":3,"parameterNumberName":"V-component_of_CURRENTS"},"data":[0,0,0,0,0,0,0,0,0,0,0,0,0,0,0,0,0,0,0,0,0,0,0,0,0,0,0,0,0,0,0,0,0,0,0,0,0,0,0,0,0,0,0,0,0,0,0,0,0,0,0,0,0,0,0,0,0,0,0.0108,0.0108,0,0.0117,0.0117,0.0118,0.0139,0.014,0.014,0.0141,0.0226,0.0228,0.023,0,0,0,0,0,0,0,0,0,0,0,0,0,0.011,0.0109,0.0108,0.0108,0.0108,0.0117,0.0117,0.0118,0.0139,0.014,0.014,0.0141,0.0226,0.0228,0.023,0,0,0,0,0,0,0,0,0,0,0,0,0,0.0113,0.0109,0.0108,0.012,0.0121,0.0117,0.0117,0.0118,0.0139,0.014,0.014,0.0141,0.0225,0.0228,0.0231,0.0236,0,0,0.0239,0.0241,0,0,0,0,0,0,0,0,0.0113,0.0113,0.0118,0.0119,0.012,0.0127,0.015,0.0161,0.0139,0.0132,0.0141,0.0141,0.02,0.0205,0.0204,0.024,0.0243,0.024,0.0241,0.0243,0.0243,0,0,0,0,0,0,0,0.0113,0.0113,0.0112,0.0118,0.0119,0.0125,0.0126,0.0151,0.0164,0.0133,0.0135,0.0135,0.0201,0.0202,0.0207,0.0245,0.024,0.0242,0.0244,0.0245,0.0306,0.0306,0,0,0,0,0,0,0.011,0.0112,0.0111,0.0112,0.0118,0.0124,0.0126,0.0125,0.0162,0.0168,0.0134,0.0136,0.0196,0.0204,0.021,0.0235,0.0243,0.0245,0.0247,0.0306,0.0306,0.0306,0,0,0,0,0,0,0.011,0.011,0.0111,0.0112,0.0113,0.0124,0.0122,0.0125,0.0128,0.0162,0.017,0.0136,0.0197,0.0206,0.0235,0.0239,0.0247,0.0249,0.0306,0.0306,0.0306,0.0276,0,0,0,0,0,0,0.011,0.011,0.01,0.0112,0.0113,0.0107,0.0122,0.0124,0.0127,0.0129,0.0166,0.0174,0.0198,0.0231,0.0238,0.0243,0.0251,0.0306,0.0306,0.0306,0.0277,0.0274,0.0272,0,0,0,0,0,0.011,0.0095,0.01,0.0099,0.0102,0.0106,0.0107,0.0117,0.0126,0.0123,0.0152,0.0173,0.0235,0.0233,0.0242,0.0247,0.0306,0.0306,0.0306,0.0278,0.0275,0.0273,0,0,0,0,0,0,0.0084,0.0096,0.0101,0.0089,0.0097,0.011,0.0106,0.0115,0.0133,0.0139,0.0174,0.0184,0.021,0.0231,0.0228,0.0263,0.0274,0.0275,0.0249,0.0247,0.0245,0.0237,0.0254,0,0,0,0,0,0.0075,0.007,0.0084,0.0072,0.0078,0.0092,0.0093,0.0102,0.0122,0.0129,0.0156,0.0186,0.0214,0.0232,0.0258,0.0278,0.0296,0.0286,0.0284,0.0282,0.0281,0.0311,0.0311,0.0305,0.0305,0.0305,0,0,0.0064,0.0066,0.0064,0.0067,0.0076,0.0078,0.0094,0.0097,0.0101,0.0138,0.0152,0.018,0.0218,0.024,0.0254,0.026,0.0291,0.0282,0.028,0.028,0.0311,0.0311,0.0312,0.0305,0.0305,0.0305,0,0,0.004,0.0042,0.0035,0.0039,0.0048,0.0061,0.0062,0.0079,0.009,0.0107,0.0136,0.0166,0.0203,0.0231,0.0251,0.0253,0.0278,0.0259,0.0245,0.0274,0.0275,0.0276,0.029,0.0292,0.0259,0.0259,0.0259,0,0.0022,0.0015,0.0032,0.0025,0.0026,0.0054,0.0049,0.0064,0.0086,0.0097,0.0109,0.0167,0.0199,0.0233,0.0234,0.0249,0.0263,0.0252,0.0271,0.0273,0.0274,0.0288,0.0291,0.0257,0.0258,0.0258,0.0258,0,-0.0001,-0.0009,-0.0013,-0.0008,-0.0003,-0.0006,0.0021,0.0031,0.0052,0.007,0.0104,0.0146,0.0179,0.0196,0.0218,0.0245,0.0249,0.0264,0.0277,0.0273,0.0288,0.0292,0.0255,0.0256,0.0256,0.0257,0,0,-0.0038,-0.0031,-0.0034,-0.0046,-0.0023,-0.0029,-0.0008,0.0012,0.0013,0.0053,0.0061,0.0122,0.0144,0.0167,0.02,0.0231,0.0253,0.0248,0.025,0.0259,0.0305,0.0288,0.0291,0.0271,0.0272,0.0273,0.0307,0,-0.0064,-0.0091,-0.007,-0.0093,-0.0105,-0.007,-0.0062,-0.0038,-0.0009,0.0005,0.0067,0.0085,0.0134,0.0141,0.0184,0.0233,0.0263,0.0241,0.0309,0.0311,0.0295,0.0295,0.0275,0.031,0.0311,0.0312,0.0312,0,-0.0096,-0.0114,-0.014,-0.015,-0.015,-0.0155,-0.0144,-0.0133,-0.0087,-0.0063,-0.0015,0.0026,0.0083,0.0115,0.0212,0.0194,0.0246,0.0288,0.0291,0.0289,0.0302,0.0318,0.0319,0.0319,0.0318,0.0318,0.0317,0,-0.0152,-0.0166,-0.0194,-0.0199,-0.0197,-0.0202,-0.0196,-0.0159,-0.0155,-0.0113,-0.0106,-0.0025,0.0002,0.0089,0.0189,0.0196,0.0287,0.0307,0.0344,0.0343,0.0361,0.036,0.0373,0.0373,0.0373,0.0373,0.0372,0,-0.0198,-0.0228,-0.023,-0.0254,-0.0292,-0.0267,-0.0289,-0.0268,-0.0239,-0.0233,-0.0154,-0.0131,-0.0003,0.0071,0.0166,0.0263,0.0273,0.0339,0.0353,0.0346,0.0343,0.0363,0.0362,0.0374,0.0374,0.0373,0.0373,0,-0.0256,-0.0257,-0.0299,-0.0312,-0.0322,-0.0352,-0.0356,-0.0362,-0.0332,-0.0322,-0.0313,-0.0218,-0.0117,0.001,0.0144,0.0219,0.0319,0.0351,0.0319,0.0331,0.036,0.0356,0.0391,0.039,0.039,0.039,0.039,0,-0.0286,-0.0314,-0.0351,-0.0377,-0.0387,-0.0421,-0.0433,-0.0414,-0.0412,-0.0366,-0.0362,-0.0275,-0.0193,-0.0019,0.0114,0.0282,0.0313,0.0353,0.0376,0.0353,0.0363,0.036,0.0357,0.0389,0.0389,0.0389,0.0389,0,-0.0339,-0.0351,-0.038,-0.0432,-0.0463,-0.0494,-0.0511,-0.0521,-0.0484,-0.0466,-0.0395,-0.029,-0.018,-0.0026,0.0098,0.0225,0.0321,0.0351,0.0353,0.0375,0.0352,0.0361,0.0359,0.0388,0.0389,0.0389,0.0389,0,-0.0367,-0.0397,-0.0426,-0.0472,-0.0516,-0.0543,-0.0552,-0.0533,-0.0527,-0.0466,-0.0445,-0.0308,-0.0227,-0.0057,0.0062,0.0178,0.0216,0.0255,0.0262,0.0265,0.0224,0.0175,0.0167,0,0,0,0,0,-0.0382,-0.0411,-0.0458,-0.0502,-0.0546,-0.0565,-0.0585,-0.0578,-0.0553,-0.0507,-0.0471,-0.0358,-0.0172,-0.0093,0.0022,0.0055,0.0226,0.019,0.0272,0.0384,0.0385,0.0358,0,0,0,0,0,0,-0.0389,-0.0434,-0.0457,-0.0511,-0.0544,-0.0583,-0.0594,-0.0577,-0.0544,-0.0505,-0.0405,-0.0341,-0.0161,-0.0235,0.0021,0.0055,0.012,0.0281,0.0283,0.0384,0.0385,0.0385,0.0358,0,0,0,0,0]}]]